Beaufort MCAS, SC

5:39 AM EDT on October 18, 2017 (GMT -0400)
Beaufort Marine Corps Air Station

Weather History for KNBC - June, 2014

Change the Weather History Date:

Sunday, June 8, 2014

  Actual Average Record
Temperature  
Mean Temperature 78 °F -  
Max Temperature 87 °F 85 °F 97 °F (1952)
Min Temperature 73 °F 68 °F 55 °F (1998)
Cooling Degree Days 14    
Growing Degree Days 28 (Base 50)    
Moisture  
Dew Point 73 °F    
Average Humidity 83    
Maximum Humidity 96    
Minimum Humidity 67    
Precipitation  
Precipitation 0.38 in - - ()
Sea Level Pressure  
Sea Level Pressure 29.95 in    
Wind  
Wind Speed 4 mph (SSW)    
Max Wind Speed 10 mph    
Max Gust Speed 20 mph    
Visibility 9 miles    
Events Rain , Thunderstorm    
Averages and records for this station are not official NWS values.
T = Trace of Precipitation, MM = Missing Value Source: NWS Daily Summary

Daily Weather History Graph

Daily Weather History Graph

Search for Another Location

Airport or City:

Trip Planner

Search our weather history database for the weather conditions in past years. The results will help you decide how hot, cold, wet, or windy it might be!

Date:

Astronomy

Jun. 08, 2014 Rise Set
Actual Time 6:15 AM EDT 8:28 PM EDT
Civil Twilight 5:46 AM EDT 8:57 PM EDT
Nautical Twilight 5:12 AM EDT 9:31 PM EDT
Astronomical Twilight 4:34 AM EDT 10:09 PM EDT
Moon 3:59 PM EDT (6/8) 2:52 AM EDT (6/8)
Length of Visible Light 15h 10m
Length of Day
14h 13m
Waxing Gibbous, 77% of the Moon is Illuminated
Jun 8
Waxing Gibbous
Jun 13
Full
Jun 19
Last Quarter
Jun 27
New
Jul 5
First Quarter

Hourly Weather History & Observations

Time (EDT) Temp. Heat Index Dew Point Humidity Pressure Visibility Wind Dir Wind Speed Gust Speed Precip Events Conditions
12:56 AM 75.0 °F - 71.1 °F 87% 29.98 in 10.0 mi South 3.5 mph - N/A   Clear
1:20 AM 75.0 °F - 71.1 °F 87% 29.97 in 10.0 mi Calm Calm - N/A   Mostly Cloudy
1:56 AM 75.0 °F - 71.1 °F 87% 29.97 in 10.0 mi Calm Calm - N/A   Overcast
2:44 AM 73.9 °F - 71.1 °F 91% 29.96 in 10.0 mi Calm Calm - N/A   Mostly Cloudy
2:56 AM 75.0 °F - 72.0 °F 90% 29.96 in 10.0 mi South 4.6 mph - N/A   Mostly Cloudy
3:56 AM 75.9 °F - 73.0 °F 91% 29.95 in 10.0 mi South 3.5 mph - N/A   Mostly Cloudy
4:56 AM 75.0 °F - 72.0 °F 90% 29.96 in 10.0 mi Calm Calm - N/A   Scattered Clouds
5:56 AM 75.9 °F - 73.0 °F 91% 29.96 in 10.0 mi SSE 3.5 mph - N/A   Scattered Clouds
6:56 AM 77.0 °F - 73.9 °F 90% 29.96 in 10.0 mi Calm Calm - N/A   Clear
7:56 AM 79.0 °F - 73.9 °F 84% 29.96 in 10.0 mi South 3.5 mph - N/A   Partly Cloudy
8:56 AM 80.1 °F 84.5 °F 73.9 °F 81% 29.94 in 10.0 mi South 8.1 mph - N/A   Partly Cloudy
9:51 AM 80.6 °F 85.4 °F 73.4 °F 79% 29.95 in 10.0 mi SSW 8.1 mph - N/A   Mostly Cloudy
9:56 AM 82.0 °F 87.9 °F 73.9 °F 76% 29.95 in 10.0 mi Variable 5.8 mph - N/A   Mostly Cloudy
10:49 AM 84.0 °F 90.2 °F 73.0 °F 69% 29.97 in 10.0 mi SSW 6.9 mph - N/A   Mostly Cloudy
10:56 AM 84.9 °F 92.1 °F 73.9 °F 69% 29.97 in 10.0 mi SSW 5.8 mph - N/A   Mostly Cloudy
11:16 AM 82.9 °F 88.8 °F 73.0 °F 72% 29.97 in 10.0 mi SSW 5.8 mph - N/A   Mostly Cloudy
11:56 AM 84.0 °F 91.2 °F 73.9 °F 72% 29.97 in 10.0 mi SSW 5.8 mph - N/A   Mostly Cloudy
12:56 PM 84.9 °F 91.4 °F 73.0 °F 67% 29.95 in 10.0 mi SW 10.4 mph 19.6 mph N/A   Partly Cloudy
1:40 PM 80.1 °F 83.8 °F 72.0 °F 76% 29.96 in 10.0 mi SSW 6.9 mph - 0.00 in Thunderstorm Thunderstorm
1:56 PM 78.1 °F - 73.0 °F 84% 29.96 in 2.5 mi SW 6.9 mph 18.4 mph 0.03 in Rain , Thunderstorm Thunderstorms and Rain
2:05 PM 77.0 °F - 73.9 °F 90% 29.96 in 1.5 mi WSW 6.9 mph - 0.04 in Rain , Thunderstorm Heavy Thunderstorms and Rain
2:09 PM 75.9 °F - 73.0 °F 91% 29.97 in 0.8 mi Variable 3.5 mph - 0.10 in Rain , Thunderstorm Heavy Thunderstorms and Rain
2:26 PM 75.9 °F - 73.9 °F 94% 29.97 in 1.0 mi South 4.6 mph - 0.30 in Rain Heavy Rain
2:35 PM 75.0 °F - 73.9 °F 96% 29.97 in 1.8 mi SSW 5.8 mph - 0.32 in Rain Rain
2:38 PM 75.0 °F - 73.0 °F 94% 29.97 in 3.0 mi SSW 5.8 mph - 0.33 in Rain Light Rain
2:56 PM 75.9 °F - 73.9 °F 94% 29.96 in 9.0 mi South 4.6 mph - 0.35 in Rain , Thunderstorm Light Thunderstorms and Rain
3:28 PM 78.1 °F - 75.0 °F 90% 29.94 in 10.0 mi SW 5.8 mph - 0.00 in   Scattered Clouds
3:56 PM 80.1 °F 83.6 °F 71.1 °F 74% 29.94 in 10.0 mi SSW 6.9 mph - 0.00 in   Clear
4:56 PM 82.9 °F 88.0 °F 72.0 °F 69% 29.91 in 10.0 mi SSW 3.5 mph - N/A   Mostly Cloudy
5:56 PM 82.9 °F 87.5 °F 71.1 °F 67% 29.89 in 10.0 mi South 6.9 mph - N/A   Mostly Cloudy
6:56 PM 82.0 °F 87.4 °F 73.0 °F 74% 29.90 in 10.0 mi SSW 4.6 mph - N/A   Clear
7:56 PM 80.1 °F 84.5 °F 73.9 °F 81% 29.90 in 10.0 mi SSW 5.8 mph - N/A   Clear
8:56 PM 79.0 °F - 73.9 °F 84% 29.91 in 10.0 mi Variable 4.6 mph - N/A   Clear
9:56 PM 78.1 °F - 75.0 °F 90% 29.91 in 10.0 mi SW 6.9 mph - N/A   Clear
10:56 PM 78.1 °F - 75.0 °F 90% 29.92 in 10.0 mi SW 4.6 mph - N/A   Clear
11:56 PM 78.1 °F - 75.0 °F 90% 29.92 in 10.0 mi WSW 4.6 mph - N/A   Clear